Location: Trebic
(49.2170°N, 15.8830°E)
Time: 09:44:09
(UTC+02:00)

Courier 1B Rocket - Pass Details

Date: 27 August 2019
Orbit: 920 x 1202 km, 28.2° (Epoch: 20 September)

Event Time Altitude Azimuth Distance (km) Brightness Sun altitude
Rises 03:10:44 0° 220° (SW) 3,812 - -23.8°
Reaches altitude 10° 03:15:26 10° 192° (SSW) 2,931 - -23.4°
Maximum altitude 03:18:03 12° 170° (S) 2,806 - -23.1°
Exits shadow 03:19:44 11° 156° (SSE) 2,896 7.2 -22.9°
Drops below altitude 10° 03:20:43 10° 149° (SSE) 3,006 7.3 -22.8°
Sets 03:25:43 0° 121° (ESE) 4,026 8.3 -22.3°
